Regional Weather Roundup
Issued by NWS

Home | Current Version | Previous Version | Graphics & Text | Print | Product List | Glossary On
Versions: 1 2 3 4 5 6 7 8 9 10 11 12 13 14 15 16 17 18 19 20 21 22 23 24 25 26 27 28 29 30 31 32 33 34 35 36 37 38 39 40 41 42 43 44 45 46 47 48 49 50
000
ASUS45 KSLC 061010
RWRUT

UTAH REGIONAL WEATHER ROUNDUP
NATIONAL WEATHER SERVICE SALT LAKE CITY UT
300 AM MST SAT FEB 06 2016

UTZ001>011-023>025-061100-

NORTHERN UTAH

CITY           SKY/WX    TMP DP  RH WIND       PRES   REMARKS
BRIGHAM CITY   MOCLDY    30  24  79 CALM      30.53R
HILL AFB       CLEAR     25  13  59 E8        30.50S WCI  16
LOGAN          FOG       12  11  95 CALM      30.51R VSB 1/4
OGDEN          CLEAR     23  18  81 S7        30.51S WCI  15
PROVO AIRPORT    N/A    N/A N/A N/A CALM      30.54F VSB<1/4
SALT LAKE CITY CLEAR     25  19  78 S8        30.52S WCI  16
VERNAL         CLOUDY     3  -2  79 CALM      30.53S
WENDOVER       PTCLDY    23  19  86 CALM      30.51S
HEBER CITY     FOG        3   0  85 CALM      30.51S VSB 1/2
WEST JORDAN    CLEAR     25  19  80 S10       30.52S WCI  15

$$

UTZ012>022-026-027-061100-

SOUTHERN/CENTRAL UTAH

CITY           SKY/WX    TMP DP  RH WIND       PRES   REMARKS
BLANDING       CLEAR     16   9  74 N7        30.54F WCI   6
BRYCE CANYON   PTCLDY     3  -1  83 W12       30.47S WCI -13
CEDAR CITY     PTCLDY    10   7  87 CALM      30.49S
DELTA          CLOUDY     6   3  90 E3        30.53F VSB 1/4
HANKSVILLE     CLOUDY    16  14  93 NW5       30.64R WCI   9
MILFORD        CLOUDY    -1  -4  87 SW8       30.53S FOG     WCI -15
MOAB/CYNLANDS  CLOUDY    16  14  92 N3        30.59R FOG
PRICE          PTCLDY     8   3  80 NE6       30.50R WCI  -2
ST GEORGE      MOSUNNY   34  21  60 SE3       30.54S
KANAB          CLEAR     30  21  69 N13       30.53S WCI  20

$$

REGIONAL REPORTS     COLORADO/ARIZONA

CITY           SKY/WX    TMP DP  RH WIND       PRES   REMARKS
CRAIG, CO      CLOUDY   -10 -15  78 CALM      30.49F
GRAND JUNCTION CLOUDY     4   3  96 E3        30.58S FOG
RIFLE          CLOUDY     1  -5  75 CALM      30.58R
MONTROSE       CLEAR      6   0  76 SE8       30.58R WCI  -7
CORTEZ         CLOUDY     6   1  80 E8        30.49S WCI  -7
PAGE, AZ       CLEAR     27  19  72 CALM      30.53R
GRAND CANYON   CLEAR     12   7  80 NE9       30.48S WCI   0
KINGMAN        CLEAR     34  32  92 SE5       30.43S WCI  30
FLAGSTAFF      CLEAR     12   8  84 CALM      30.46F

$$

REGIONAL REPORTS    NEVADA/IDAHO/WYOMING

CITY           SKY/WX    TMP DP  RH WIND       PRES   REMARKS
LAS VEGAS, NV  CLEAR     42  25  50 CALM      30.44R
ELY            PTCLDY     7   3  84 S21       30.49R WCI -13
ELKO           MOCLDY     9   5  84 NE6       30.52R WCI  -1
POCATELLO, ID  CLOUDY    13  11  92 CALM      30.48F
BURLEY         PTCLDY    22  19  89 E3        30.43F
EVANSTON, WY   CLOUDY    14  11  87 S9        30.42F WCI   2
ROCK SPRINGS   CLOUDY    21  15  78 S7        30.38R WCI  12

$$



USA.gov is the U.S. government's official web portal to all federal, state and local government web resources and services.